[Iaude] MPEC O103: 2024 OW [a=1.43,e=0.33,i=6.2,H=22.4]
    mpec at cfa.harvard.edu 
    mpec at cfa.harvard.edu
       
    Tue Jul 30 10:10:54 EDT 2024
    
    
  
M.P.E.C. 2024-O103                                Issued 2024 July 30, 14:09 UT
     The Minor Planet Electronic Circulars contain information on unusual
         minor planets, routine data on comets and natural satellites,
         and occasional editorial announcements.  They are published
    on behalf of Division F of the International Astronomical Union by the
          Minor Planet Center, Smithsonian Astrophysical Observatory,
                          Cambridge, MA 02138, U.S.A.
			  
             Prepared using the Tamkin Foundation Computer Network
                              MPC at CFA.HARVARD.EDU
            URL https://www.minorplanetcenter.net/    ISSN 1523-6714
                                    2024 OW                                     
Observations:
     K24O00W* C2024 07 27.51064522 24 40.058-15 23 23.80         20.73wXEO103F52
     K24O00W  C2024 07 27.52250522 24 41.471-15 23 39.61         21.00wXEO103F52
     K24O00W  C2024 07 27.54622222 24 44.256-15 24 10.91         20.78wXEO103F52
     K24O00W  C2024 07 27.59409122 24 49.952-15 25 13.78         20.54GVEO103F51
     K24O00W  C2024 07 27.59473622 24 50.029-15 25 14.56         20.59GVEO103F51
     K24O00W |C2024 07 28.36151022 26 33.850-15 42 06.80         20.4 GVEO103807
     K24O00W |C2024 07 28.36592022 26 34.390-15 42 13.10         20.7 GVEO103807
     K24O00W |C2024 07 28.37026022 26 34.900-15 42 19.70         19.8 GVEO103807
     K24O00W KC2024 07 29.35549 22 28 53.268-16 06 35.06         20.5 RVEO103734
     K24O00W KC2024 07 29.37308 22 28 55.529-16 07 02.64         20.4 RVEO103734
     K24O00W  C2024 07 30.50837022 31 39.917-16 35 45.27         20.69wXEO103F52
     K24O00W  C2024 07 30.51886822 31 41.287-16 36 01.72         20.54wXEO103F52
     K24O00W  C2024 07 30.52938222 31 42.656-16 36 18.35         20.67wXEO103F52
Observer details:
734 Farpoint Observatory, Eskridge.  Observers G. Hug, D. Cromer, D. Goodin,
    R. Valentine, P. Lessig.  Measurer G. Hug.  0.7-m f/3.5 0.7m reflector +
    CCD.
807 Cerro Tololo Observatory, La Serena.  Observers T. Linder, R. Holmes.
    0.61-m f/6.8 Ritchey-Chretien + CCD.
F51 Pan-STARRS 1, Haleakala.  Observers J. Herman, T. Lowe, P. Minguez, A.
    Schultz, I. Smith.  Measurers K. Chambers, T. de Boer, J. Fairlamb, H.
    Gao, M. Huber, C.-C. Lin, E. Magnier, Y. Ramanjooloo, R. Wainscoat, R.
    Weryk.  1.8-m Ritchey-Chretien + CCD.
F52 Pan-STARRS 2, Haleakala.  Observers J. Herman, T. Lowe, P. Minguez, A.
    Schultz, I. Smith.  Measurers K. Chambers, T. de Boer, J. Fairlamb, H.
    Gao, M. Huber, C.-C. Lin, E. Magnier, Y. Ramanjooloo, R. Wainscoat, R.
    Weryk.  1.8-m Ritchey-Chretien + CCD.
Orbital elements:
2024 OW                                                  Earth MOID = 0.0840 AU
Epoch 2024 Oct. 17.0 TT = JDT 2460600.5                 MPC                     
M 359.99032              (2000.0)            P               Q                  
n   0.57373931     Peri.  271.78834     +0.83776769     -0.53804343             
a   1.4343649      Node   120.77292     +0.53407973     +0.77201104             
e   0.3336071      Incl.    6.21588     +0.11359639     +0.33839063             
P   1.72           H   22.48          G   0.15           U   8                  
Residuals in seconds of arc
240727 F52  0.1-  0.0     240728 807  0.2+  0.3+    240730 F52  0.0   0.0
240727 F52  0.1+  0.0     240728 807  0.0   0.0     240730 F52  0.0   0.1+
240727 F52  0.1-  0.0     240728 807  0.4-  0.7-    240730 F52  0.0   0.0
240727 F51  0.1-  0.0     240729 734  0.4-  0.4+
240727 F51  0.1-  0.1+    240729 734  0.2-  1.2-
Ephemeris:
2024 OW                  a,e,i = 1.43, 0.33, 6                   q = 0.9559
Date    TT    R. A. (2000) Decl.     Delta      r    Elong.  Phase     V
2024 06 30    21 37 01.2 -10 50 45   0.4380  1.3633   135.3    31.6    22.7
...
2024 07 15    22 00 44.3 -12 10 35   0.3164  1.2876   144.7    27.2    21.7
...
2024 07 23    22 15 14.7 -13 55 37   0.2601  1.2470   149.5    24.4    21.2
...
2024 07 29    22 28 03.2 -15 57 23   0.2219  1.2166   152.6    22.6    20.7
2024 07 30    22 30 25.5 -16 22 10   0.2159  1.2116   153.0    22.3    20.6
2024 07 31    22 32 52.7 -16 48 24   0.2100  1.2066   153.4    22.1    20.6
...
2024 08 06    22 49 49.4 -19 59 57   0.1768  1.1768   154.9    21.5    20.1
...
2024 08 14    23 21 51.5 -26 05 10   0.1391  1.1381   152.4    24.3    19.6
...
2024 08 29    01 33 02.0 -42 21 47   0.09411 1.0708   128.3    47.8    19.3
A. U. Tomatic                (C) Copyright 2024 MPC           M.P.E.C. 2024-O103
    
    
More information about the Iaude
mailing list